This is the latest recevied weather packets stored in our database for station/object N0QV. If no packets are shown the sender has not sent any weather packets the latest 10 day(s).
| Time | Temp. | Humidity | Pressure | Rain* | Wind** | Luminosity | Snow |
|---|---|---|---|---|---|---|---|
| 1777930585 | 16.67° C | 32% | 1003.1 hPa | 0 mm | - | 436 W/m² | - |
| 1777930282 | 16.67° C | 34% | 1003.3 hPa | 0 mm | - | 462 W/m² | - |
| 1777929978 | 17.22° C | 34% | 1003.1 hPa | 0 mm | - | 471 W/m² | - |
| 1777929675 | 16.67° C | 33% | 1003 hPa | 0 mm | - | 535 W/m² | - |
| 1777929372 | 16.67° C | 32% | 1003.1 hPa | 0 mm | - | 511 W/m² | - |
| 1777929069 | 16.67° C | 33% | 1003 hPa | 0 mm | - | 482 W/m² | - |
| 1777928767 | 16.67° C | 34% | 1003.2 hPa | 0 mm | - | 522 W/m² | - |
| 1777928463 | 16.67° C | 33% | 1003.1 hPa | 0 mm | - | 537 W/m² | - |
| 1777928160 | 16.67° C | 34% | 1003.2 hPa | 0 mm | - | 399 W/m² | - |
| 1777927858 | 16.67° C | 34% | 1003 hPa | 0 mm | - | 377 W/m² | - |
| 1777927556 | 16.67° C | 34% | 1003 hPa | 0 mm | - | 473 W/m² | - |
| 1777927255 | 17.22° C | 32% | 1003 hPa | 0 mm | - | 543 W/m² | - |
| 1777926953 | 16.67° C | 33% | 1002.8 hPa | 0 mm | - | 367 W/m² | - |
| 1777926650 | 17.78° C | 32% | 1003 hPa | 0 mm | - | 393 W/m² | - |
| 1777926345 | 17.22° C | 34% | 1003.1 hPa | 0 mm | - | 602 W/m² | - |
| 1777926042 | 16.67° C | 33% | 1002.9 hPa | 0 mm | - | 332 W/m² | - |
| 1777925739 | 17.22° C | 33% | 1003.1 hPa | 0 mm | - | 617 W/m² | - |
| 1777925437 | 17.22° C | 31% | 1002.9 hPa | 0 mm | - | 610 W/m² | - |
| 1777925133 | 17.22° C | 32% | 1003.2 hPa | 0 mm | - | 680 W/m² | - |
| 1777924830 | 17.22° C | 32% | 1003.3 hPa | 0 mm | - | 666 W/m² | - |
| 1777924526 | 17.22° C | 33% | 1002.8 hPa | 0 mm | - | 416 W/m² | - |
| 1777924223 | 17.22° C | 33% | 1002.8 hPa | 0 mm | - | 529 W/m² | - |
| 1777923919 | 17.22° C | 32% | 1002.8 hPa | 0 mm | - | 522 W/m² | - |
| 1777923615 | 17.78° C | 32% | 1002.5 hPa | 0 mm | - | 452 W/m² | - |
| 1777923312 | 17.78° C | 32% | 1002.3 hPa | 0 mm | - | 694 W/m² | - |
* Rain latest hour (hover to see other rain measurements)
** Current wind speed in m/s (hover to see current wind gust speed)